This is the latest recevied weather packets stored in our database for station/object W8DRH-13. If no packets are shown the sender has not sent any weather packets the latest 10 day(s).
| Time | Temp. | Humidity | Pressure | Rain* | Wind** | Luminosity | Snow |
|---|---|---|---|---|---|---|---|
| 1777290820 | 9.44° C | 87% | 1016.2 hPa | 0 mm | - | 42 W/m² | - |
| 1777290517 | 9.44° C | 87% | 1016.3 hPa | 0 mm | - | 42 W/m² | - |
| 1777290213 | 9.44° C | 87% | 1016.4 hPa | 0 mm | - | 42 W/m² | - |
| 1777289910 | 8.89° C | 87% | 1016.2 hPa | 0 mm | - | 40 W/m² | - |
| 1777289606 | 8.89° C | 88% | 1016.2 hPa | 0 mm | - | 39 W/m² | - |
| 1777289302 | 8.89° C | 88% | 1016.2 hPa | 0 mm | - | 37 W/m² | - |
| 1777288998 | 8.89° C | 88% | 1016.3 hPa | 0 mm | - | 35 W/m² | - |
| 1777288695 | 8.89° C | 88% | 1016.3 hPa | 0 mm | - | 32 W/m² | - |
| 1777288392 | 8.89° C | 88% | 1016.2 hPa | 0 mm | - | 27 W/m² | - |
| 1777288088 | 8.33° C | 88% | 1016.5 hPa | 0 mm | - | 22 W/m² | - |
| 1777287785 | 8.33° C | 88% | 1016.4 hPa | 0 mm | - | 19 W/m² | - |
| 1777287482 | 8.33° C | 88% | 1016.4 hPa | 0 mm | - | 14 W/m² | - |
| 1777287176 | 8.33° C | 89% | 1016.4 hPa | 0 mm | - | 10 W/m² | - |
| 1777286874 | 8.33° C | 89% | 1016.3 hPa | 0 mm | - | 7 W/m² | - |
| 1777286571 | 8.33° C | 89% | 1016.3 hPa | 0 mm | - | 4 W/m² | - |
| 1777286268 | 8.33° C | 90% | 1016.2 hPa | 0 mm | - | 3 W/m² | - |
| 1777285965 | 8.33° C | 90% | 1016.6 hPa | 0 mm | - | 1 W/m² | - |
| 1777285663 | 8.33° C | 89% | 1016.3 hPa | 0 mm | - | 0 W/m² | - |
| 1777285360 | 8.33° C | 89% | 1016.3 hPa | 0 mm | - | 0 W/m² | - |
| 1777285056 | 8.33° C | 88% | 1016.5 hPa | 0 mm | - | 0 W/m² | - |
| 1777284754 | 8.33° C | 88% | 1016.2 hPa | 0 mm | - | 0 W/m² | - |
| 1777284445 | 8.33° C | 88% | 1016.5 hPa | 0 mm | - | 0 W/m² | - |
| 1777284142 | 8.33° C | 88% | 1016.6 hPa | 0 mm | - | 0 W/m² | - |
| 1777283839 | 8.33° C | 88% | 1016.6 hPa | 0 mm | - | 0 W/m² | - |
| 1777283536 | 8.33° C | 88% | 1016.4 hPa | 0 mm | - | 0 W/m² | - |
* Rain latest hour (hover to see other rain measurements)
** Current wind speed in m/s (hover to see current wind gust speed)